Location: Kershaw
(34.5481°N, 80.5823°W)
Time: 21:50:58
(UTC+00:00)

Vanguard 2 Rocket - Pass Details

Date: 02 October 2022
Orbit: 555 x 3321 km, 32.9° (Epoch: 28 November)

Event Time Altitude Azimuth Distance (km) Brightness Sun altitude
Rises 02:29:13 0° 224° (SW) 7,191 11.6 -41.2°
Reaches altitude 10° 02:34:46 10° 218° (SW) 5,967 11.1 -42.2°
Enters shadow 02:43:48 30° 199° (SSW) 3,987 9.9 -43.7°
